Location: Sungai Igah
(2.7333°N, 114.2500°E)
Time: 18:56:31
(UTC+00:00)

GPS 2-14 Rocket1 - Pass Details

Date: 14 June 2021
Orbit: 474 x 537 km, 20.7° (Epoch: 26 July)

Event Time Altitude Azimuth Distance (km) Brightness Sun altitude
Exits shadow 20:40:42 26° 149° (SSE) 953 4.0 -22.3°
Drops below altitude 10° 20:43:35 10° 99° (E) 1,627 6.0 -21.6°
Sets 20:45:59 0° 87° (E) 2,499 7.4 -21.1°
